GW7358 Weather Reports


time (UTC)temp
F
wind
direction
speed
knots
gust
knots
rain 1hr
in
rain 24hr
in
rain mn
in
humidity
%
barometer
mb
20260508003934 67 25 0.9 2.6 0.00 0.00 0.00 37 1018.0
20260508003431 67 60 1.7 2.6 0.00 0.00 0.00 37 1017.9
20260508002928 67 56 0.0 2.6 0.00 0.00 0.00 38 1018.0
20260508002424 67 48 1.7 1.7 0.00 0.00 0.00 39 1018.1
20260508001920 66 183 0.9 1.7 0.00 0.00 0.00 40 1018.1
20260508001417 66 192 1.7 1.7 0.00 0.00 0.00 40 1018.2
20260508000913 66 171 0.9 1.7 0.00 0.00 0.00 40 1018.3
20260508000412 66 188 1.7 1.7 0.00 0.00 0.00 40 1018.5
20260507235906 66 2 0.9 0.9 0.00 0.00 0.00 42 1018.6
20260507235404 66 193 0.0 1.7 0.00 0.00 0.00 41 1018.6
20260507234900 66 202 1.7 1.7 0.00 0.00 0.00 40 1018.7
20260507234359 66 191 0.9 1.7 0.00 0.00 0.00 41 1018.6
20260507233853 66 193 1.7 1.7 0.00 0.00 0.00 41 1018.8
20260507233351 66 216 0.0 1.7 0.00 0.00 0.00 41 1018.9
20260507232849 66 190 0.9 1.7 0.00 0.00 0.00 40 1019.1
20260507232345 65 263 1.7 2.6 0.00 0.00 0.00 39 1019.0
20260507231843 65 61 0.0 0.9 0.00 0.00 0.00 40 1019.1
20260507231339 66 191 0.0 1.7 0.00 0.00 0.00 40 1019.1
20260507230835 65 207 0.0 0.9 0.00 0.00 0.00 40 1019.3
20260507230333 65 351 1.7 1.7 0.00 0.00 0.00 40 1019.4
20260507225833 64 181 1.7 1.7 0.00 0.00 0.00 41 1019.5
20260507225329 65 209 0.9 0.9 0.00 0.00 0.00 40 1019.5
20260507224825 64 156 0.0 1.7 0.00 0.00 0.00 40 1019.5
20260507224322 64 165 0.0 0.9 0.00 0.00 0.00 39 1019.7
20260507223818 64 109 0.0 1.7 0.00 0.00 0.00 40 1019.7
20260507223314 64 183 0.9 1.7 0.00 0.00 0.00 38 1019.7
20260507222812 63 202 0.9 2.6 0.00 0.00 0.00 39 1020.0
20260507222308 63 77 0.0 1.7 0.00 0.00 0.00 41 1019.9
20260507221805 63 144 0.9 1.7 0.00 0.00 0.00 40 1019.7
20260507221302 62 178 1.7 1.7 0.00 0.00 0.00 42 1020.0
20260507220757 62 190 1.7 1.7 0.00 0.00 0.00 47 1020.1
20260507220256 62 140 0.0 1.7 0.00 0.00 0.00 48 1020.2
20260507215752 62 173 0.0 0.0 0.00 0.00 0.00 48 1020.4
20260507215250 62 181 0.9 0.9 0.00 0.00 0.00 48 1020.5
20260507214747 63 327 0.0 0.0 0.00 0.00 0.00 48 1020.2
20260507214244 64 162 0.0 0.9 0.00 0.00 0.00 47 1020.1
20260507213739 65 200 0.9 1.7 0.00 0.00 0.00 46 1020.2
20260507213236 65 215 0.9 1.7 0.00 0.00 0.00 45 1020.0
20260507212732 65 183 0.0 1.7 0.00 0.00 0.00 43 1019.8
20260507212229 66 44 0.0 0.9 0.00 0.00 0.00 42 1019.6
20260507211726 66 190 1.7 1.7 0.00 0.00 0.00 40 1019.6
20260507211222 66 184 0.9 1.7 0.00 0.00 0.00 42 1019.5
20260507210719 66 177 0.9 1.7 0.00 0.00 0.00 42 1019.8
20260507210216 66 202 1.7 1.7 0.00 0.00 0.00 42 1020.0
20260507205712 66 145 0.9 1.7 0.00 0.00 0.00 43 1020.1
20260507205209 65 188 0.0 1.7 0.00 0.00 0.00 44 1020.5
20260507204705 65 201 0.9 1.7 0.00 0.00 0.00 48 1020.5
20260507204203 65 191 0.0 1.7 0.00 0.00 0.00 47 1020.5
20260507203701 65 183 0.0 1.7 0.00 0.00 0.00 48 1020.8
20260507203158 65 180 0.0 1.7 0.00 0.00 0.00 48 1020.9
20260507202653 66 183 0.9 1.7 0.00 0.00 0.00 46 1020.6
20260507202150 66 205 0.9 1.7 0.00 0.00 0.00 45 1020.5
20260507201645 66 209 1.7 1.7 0.00 0.00 0.00 45 1020.6
20260507201142 66 180 1.7 1.7 0.00 0.00 0.00 44 1020.6
20260507200638 66 187 0.0 1.7 0.00 0.00 0.00 44 1020.6
20260507200135 66 206 0.9 1.7 0.00 0.00 0.00 44 1020.6
20260507195631 66 278 0.0 1.7 0.00 0.00 0.00 43 1020.6
20260507195129 65 332 1.7 3.5 0.00 0.00 0.00 46 1020.6
20260507194626 65 195 0.9 1.7 0.00 0.00 0.00 46 1020.2
20260507194120 65 182 0.0 0.9 0.00 0.00 0.00 45 1020.3
20260507193618 65 186 0.0 1.7 0.00 0.00 0.00 45 1020.5
20260507193115 65 180 0.0 1.7 0.00 0.00 0.00 45 1020.4
20260507192611 66 202 0.0 1.7 0.00 0.00 0.00 44 1020.4
20260507192108 66 184 0.9 1.7 0.00 0.00 0.00 44 1020.3
20260507191603 65 157 0.0 1.7 0.00 0.00 0.00 44 1020.3
20260507191101 65 158 0.0 1.7 0.00 0.00 0.00 44 1020.2
20260507190558 65 172 0.0 2.6 0.00 0.00 0.00 44 1020.1
20260507190057 65 165 0.9 1.7 0.00 0.00 0.00 44 1020.1
20260507185555 65 171 0.0 1.7 0.00 0.00 0.00 45 1020.0
20260507185051 65 125 0.0 1.7 0.00 0.00 0.00 44 1020.0
20260507184549 65 183 0.0 2.6 0.00 0.00 0.00 43 1019.9
20260507184047 65 170 1.7 2.6 0.00 0.00 0.00 43 1019.6
20260507183542 65 190 0.0 1.7 0.00 0.00 0.00 44 1019.5
20260507183040 65 66 0.9 1.7 0.00 0.00 0.00 44 1019.7
20260507182536 66 132 0.0 1.7 0.00 0.00 0.00 43 1019.4
20260507182032 66 146 0.9 1.7 0.00 0.00 0.00 44 1019.4
20260507181529 66 258 1.7 2.6 0.00 0.00 0.00 43 1019.6
20260507181025 66 180 0.0 2.6 0.00 0.00 0.00 43 1019.5
20260507180522 66 187 0.0 1.7 0.00 0.00 0.00 44 1019.9
20260507180019 66 127 0.0 1.7 0.00 0.00 0.00 45 1020.0
20260507175515 66 181 0.9 0.9 0.00 0.00 0.00 44 1020.0
20260507175013 66 190 1.7 1.7 0.00 0.00 0.00 44 1020.0
20260507174510 67 193 0.0 1.7 0.00 0.00 0.00 44 1019.7
20260507174007 67 189 1.7 1.7 0.00 0.00 0.00 45 1019.8
20260507173504 67 188 1.7 1.7 0.00 0.00 0.00 45 1019.5
20260507173001 67 194 0.9 1.7 0.00 0.00 0.00 46 1019.6
20260507172457 67 180 1.7 1.7 0.00 0.00 0.00 46 1019.6
20260507171954 67 191 1.7 1.7 0.00 0.00 0.00 47 1019.6
20260507171449 68 186 1.7 1.7 0.00 0.00 0.00 48 1019.6
20260507170947 68 144 0.0 2.6 0.00 0.00 0.00 47 1019.6
20260507170444 68 194 1.7 1.7 0.00 0.00 0.00 47 1019.6
20260507165940 68 176 0.9 1.7 0.00 0.00 0.00 45 1019.6
20260507165436 69 202 0.9 1.7 0.00 0.00 0.00 44 1019.4
20260507164932 69 197 0.0 1.7 0.00 0.00 0.00 45 1019.4
20260507164429 70 193 0.0 1.7 0.00 0.00 0.00 44 1019.4
20260507163926 70 224 0.0 1.7 0.00 0.00 0.00 43 1019.1
20260507163424 71 204 0.0 1.7 0.00 0.00 0.00 44 1019.2
20260507162920 71 190 0.9 1.7 0.00 0.00 0.00 43 1019.2
20260507162415 71 149 0.0 0.9 0.00 0.00 0.00 43 1019.3
20260507161913 71 198 0.9 0.9 0.00 0.00 0.00 41 1019.2
20260507161409 71 230 0.0 0.0 0.00 0.00 0.00 38 1019.3
20260507160906 71 198 1.7 2.6 0.00 0.00 0.00 41 1019.5
20260507160401 71 214 3.5 3.5 0.00 0.00 0.00 40 1019.3
20260507155858 71 214 1.7 2.6 0.00 0.00 0.00 38 1019.3
20260507155354 71 216 2.6 2.6 0.00 0.00 0.00 38 1019.3
20260507154851 71 218 2.6 2.6 0.00 0.00 0.00 40 1019.1
20260507154348 71 242 1.7 2.6 0.00 0.00 0.00 39 1019.2
20260507153845 71 241 1.7 2.6 0.00 0.00 0.00 44 1019.2
20260507153341 72 228 2.6 2.6 0.00 0.00 0.00 47 1019.2
20260507152838 72 233 2.6 3.5 0.00 0.00 0.00 48 1018.9
20260507152334 72 215 1.7 4.3 0.00 0.00 0.00 46 1019.0
20260507151831 72 221 3.5 5.2 0.00 0.00 0.00 50 1019.2
20260507151327 73 208 3.5 5.2 0.00 0.00 0.00 42 1019.1
20260507150824 74 215 1.7 2.6 0.00 0.00 0.00 34 1019.4
20260507150320 74 185 0.0 1.7 0.00 0.00 0.00 35 1019.3
20260507145817 74 197 0.0 1.7 0.00 0.00 0.00 35 1019.5
20260507145313 73 236 0.0 1.7 0.00 0.00 0.00 35 1019.7
20260507144811 73 193 1.7 1.7 0.00 0.00 0.00 36 1019.7
20260507144307 72 196 0.9 2.6 0.00 0.00 0.00 39 1019.9
20260507143804 72 89 0.9 0.9 0.00 0.00 0.00 41 1020.1
20260507143302 72 210 0.0 2.6 0.00 0.00 0.00 39 1020.3
20260507142757 71 292 0.0 0.9 0.00 0.00 0.00 36 1020.2
20260507142254 71 187 0.9 1.7 0.00 0.00 0.00 39 1020.4
20260507141750 71 193 1.7 2.6 0.00 0.00 0.00 44 1020.2
20260507141248 71 231 1.7 2.6 0.00 0.00 0.00 49 1020.1
20260507140743 71 246 1.7 2.6 0.00 0.00 0.00 48 1020.2
20260507140241 71 201 1.7 2.6 0.00 0.00 0.00 48 1020.2
20260507135738 71 248 1.7 3.5 0.00 0.00 0.00 48 1019.8
20260507135235 71 228 4.3 5.2 0.00 0.00 0.00 48 1019.8
20260507134731 72 214 2.6 4.3 0.00 0.00 0.00 47 1020.0
20260507134228 72 218 2.6 4.3 0.00 0.00 0.00 41 1019.7
20260507133724 72 230 4.3 4.3 0.00 0.00 0.00 43 1019.7
20260507133221 72 233 3.5 5.2 0.00 0.00 0.00 48 1019.7
20260507132718 73 213 5.2 5.2 0.00 0.00 0.00 55 1019.6
20260507132215 73 222 4.3 5.2 0.00 0.00 0.00 55 1019.6
20260507131712 73 224 3.5 5.2 0.00 0.00 0.00 54 1019.7
20260507131209 72 206 3.5 4.3 0.00 0.00 0.00 51 1019.7
20260507130706 72 216 5.2 5.2 0.00 0.00 0.00 47 1019.8
20260507130204 73 202 3.5 6.1 0.00 0.00 0.00 50 1019.9
20260507125702 72 212 3.5 5.2 0.00 0.00 0.00 56 1019.9
20260507125159 73 224 4.3 5.2 0.00 0.00 0.00 55 1020.1
20260507124655 74 205 3.5 7.0 0.00 0.00 0.00 54 1020.3
20260507124153 74 223 4.3 6.1 0.00 0.00 0.00 52 1020.1
20260507123651 74 221 3.5 7.0 0.00 0.00 0.00 51 1020.2
20260507123148 73 223 5.2 6.1 0.00 0.00 0.00 50 1020.3
20260507122643 73 187 5.2 5.2 0.00 0.00 0.00 50 1020.4
20260507122139 74 208 2.6 5.2 0.00 0.00 0.00 48 1020.7
20260507121635 75 229 4.3 7.0 0.00 0.00 0.00 49 1020.5
20260507121131 75 213 3.5 6.1 0.00 0.00 0.00 48 1020.7
20260507120628 74 203 3.5 6.1 0.00 0.00 0.00 47 1020.7
20260507120124 73 207 3.5 6.1 0.00 0.00 0.00 51 1020.7
20260507115621 73 217 5.2 6.1 0.00 0.00 0.00 50 1020.6
20260507115117 75 205 4.3 6.1 0.00 0.00 0.00 50 1020.4
20260507114613 75 227 4.3 7.8 0.00 0.00 0.00 54 1020.4
20260507114110 74 199 5.2 7.0 0.00 0.00 0.00 52 1020.4
20260507113607 74 214 4.3 6.1 0.00 0.00 0.00 53 1020.2
20260507113104 75 228 3.5 6.1 0.00 0.00 0.00 52 1020.0
20260507112602 74 229 3.5 5.2 0.00 0.00 0.00 54 1020.2
20260507112059 73 209 3.5 3.5 0.00 0.00 0.00 53 1020.4
20260507111555 73 229 3.5 5.2 0.00 0.00 0.00 55 1020.7
20260507111052 73 239 1.7 4.3 0.00 0.00 0.00 57 1020.8
20260507110548 73 226 3.5 4.3 0.00 0.00 0.00 60 1020.9
20260507110045 73 231 2.6 4.3 0.00 0.00 0.00 59 1020.8
20260507105542 73 242 2.6 4.3 0.00 0.00 0.00 57 1020.5
20260507105038 74 240 3.5 4.3 0.00 0.00 0.00 56 1020.4
20260507104535 73 250 1.7 4.3 0.00 0.00 0.00 60 1020.5
20260507104032 73 217 3.5 5.2 0.00 0.00 0.00 61 1020.3
20260507103528 73 236 3.5 3.5 0.00 0.00 0.00 61 1020.5
20260507103025 72 207 3.5 3.5 0.00 0.00 0.00 62 1020.6
20260507102522 72 230 3.5 4.3 0.00 0.00 0.00 62 1020.6
20260507102018 72 230 3.5 4.3 0.00 0.00 0.00 61 1020.5
20260507101513 72 248 3.5 4.3 0.00 0.00 0.00 62 1020.5
20260507101010 71 225 3.5 4.3 0.00 0.00 0.00 63 1020.6
20260507100507 71 233 3.5 4.3 0.00 0.00 0.00 65 1020.4
20260507100005 71 234 3.5 4.3 0.00 0.00 0.00 64 1020.4
20260507095503 71 207 3.5 5.2 0.00 0.00 0.00 66 1020.5
20260507094959 71 231 6.1 7.8 0.00 0.00 0.00 64 1020.3
20260507094455 72 218 4.3 7.0 0.00 0.00 0.00 63 1020.2
20260507093953 72 218 5.2 5.2 0.00 0.00 0.00 60 1020.2
20260507093450 72 214 3.5 5.2 0.00 0.00 0.00 63 1020.5
20260507092948 71 209 4.3 5.2 0.00 0.00 0.00 62 1020.5
20260507092444 71 206 4.3 4.3 0.00 0.00 0.00 62 1020.6
20260507091941 72 198 4.3 6.1 0.00 0.00 0.00 62 1020.6
20260507091438 72 203 4.3 6.1 0.00 0.00 0.00 65 1020.6
20260507090934 71 215 2.6 5.2 0.00 0.00 0.00 65 1020.2
20260507090430 71 227 3.5 5.2 0.00 0.00 0.00 65 1020.4
20260507085926 70 217 5.2 6.1 0.00 0.00 0.00 65 1020.3
20260507085424 70 215 5.2 5.2 0.00 0.00 0.00 65 1020.4
20260507084921 70 231 6.1 7.0 0.00 0.00 0.00 67 1020.3
20260507084417 70 223 4.3 6.1 0.00 0.00 0.00 67 1020.4
20260507083915 70 216 4.3 5.2 0.00 0.00 0.00 65 1020.1
20260507083411 70 244 3.5 3.5 0.00 0.00 0.00 68 1020.2
20260507082907 70 214 3.5 4.3 0.00 0.00 0.00 68 1020.2
20260507082403 70 218 4.3 5.2 0.00 0.00 0.00 66 1020.2
20260507081901 70 228 4.3 5.2 0.00 0.00 0.00 66 1020.3
20260507081356 70 206 2.6 4.3 0.00 0.00 0.00 67 1020.2
20260507080853 69 211 3.5 5.2 0.00 0.00 0.00 68 1020.0
20260507080349 70 221 3.5 6.1 0.00 0.00 0.00 67 1020.0
20260507075845 69 243 1.7 4.3 0.00 0.00 0.00 67 1019.8
20260507075341 69 219 3.5 5.2 0.00 0.00 0.00 64 1019.9
20260507074838 69 214 4.3 5.2 0.00 0.00 0.00 64 1019.9
20260507074335 69 214 3.5 5.2 0.00 0.00 0.00 64 1019.7
20260507073832 69 229 5.2 7.8 0.00 0.00 0.00 66 1019.8
20260507073329 69 233 3.5 5.2 0.00 0.00 0.00 66 1019.7
20260507072826 69 223 3.5 5.2 0.00 0.00 0.00 65 1019.9
20260507072323 69 234 1.7 3.5 0.00 0.00 0.00 64 1020.1
20260507071821 69 239 1.7 3.5 0.00 0.00 0.00 65 1020.0
20260507071318 69 195 3.5 5.2 0.00 0.00 0.00 64 1020.1
20260507070814 69 219 2.6 2.6 0.00 0.00 0.00 64 1019.9
20260507070312 68 242 2.6 3.5 0.00 0.00 0.00 64 1019.9
20260507065808 68 218 2.6 3.5 0.00 0.00 0.00 64 1019.8
20260507065306 68 218 3.5 4.3 0.00 0.00 0.00 65 1019.9
20260507064802 68 230 3.5 4.3 0.00 0.00 0.00 64 1019.7
20260507064301 68 248 2.6 3.5 0.00 0.00 0.00 63 1019.8
20260507063758 68 229 2.6 3.5 0.00 0.00 0.00 63 1019.8
20260507063255 67 227 2.6 3.5 0.00 0.00 0.00 64 1019.9
20260507062751 67 243 2.6 3.5 0.00 0.00 0.00 63 1019.6
20260507062249 68 221 2.6 3.5 0.00 0.00 0.00 63 1019.7
20260507061747 68 232 5.2 5.2 0.00 0.00 0.00 60 1019.7
20260507061244 67 220 3.5 4.3 0.00 0.00 0.00 60 1019.6
20260507060743 67 227 2.6 4.3 0.00 0.00 0.00 58 1019.4
20260507060239 67 208 2.6 3.5 0.00 0.00 0.00 57 1019.4
20260507055735 67 220 3.5 4.3 0.00 0.00 0.00 58 1019.4
20260507055230 67 195 2.6 3.5 0.00 0.00 0.00 57 1019.3
20260507054726 67 205 2.6 3.5 0.00 0.00 0.00 56 1019.2
20260507054224 66 201 1.7 2.6 0.00 0.00 0.00 53 1019.2
20260507053721 65 214 1.7 2.6 0.00 0.00 0.00 60 1019.4
20260507053219 65 109 0.0 1.7 0.00 0.00 0.00 58 1019.2
20260507052718 64 226 1.7 2.6 0.00 0.00 0.00 58 1019.2
20260507052213 63 197 1.7 2.6 0.00 0.00 0.00 54 1019.2
20260507051712 61 281 0.9 1.7 0.00 0.00 0.00 57 1019.3
20260507051208 61 203 0.0 1.7 0.00 0.00 0.00 60 1019.2
20260507050705 60 217 0.0 1.7 0.00 0.00 0.00 61 1019.3
20260507050202 60 207 0.0 1.7 0.00 0.00 0.00 61 1019.1
20260507045658 59 191 1.7 1.7 0.00 0.00 0.00 63 1019.2
20260507045156 59 191 0.0 1.7 0.00 0.00 0.00 62 1019.1
20260507044652 59 185 1.7 1.7 0.00 0.00 0.00 62 1019.2
20260507044148 59 198 0.0 1.7 0.00 0.00 0.00 62 1019.0
20260507043644 58 182 0.0 1.7 0.00 0.00 0.00 62 1018.8
20260507043142 58 208 0.0 1.7 0.00 0.00 0.00 61 1018.7
20260507042638 58 189 0.9 1.7 0.00 0.00 0.00 60 1018.3
20260507042134 58 117 0.0 1.7 0.00 0.00 0.00 60 1018.3
20260507041631 58 187 0.0 1.7 0.00 0.00 0.00 59 1018.4
20260507041127 58 185 1.7 1.7 0.00 0.00 0.00 58 1018.3
20260507040624 58 190 0.9 1.7 0.00 0.00 0.00 58 1018.2
20260507040120 57 185 0.0 1.7 0.00 0.00 0.00 60 1018.0
20260507035616 57 202 1.7 1.7 0.00 0.00 0.00 59 1018.1
20260507035113 57 186 0.9 1.7 0.00 0.00 0.00 59 1018.1
20260507034610 57 193 1.7 1.7 0.00 0.00 0.00 59 1018.0
20260507034107 57 186 0.9 1.7 0.00 0.00 0.00 60 1017.8
20260507033605 57 192 0.0 1.7 0.00 0.00 0.00 62 1017.7
20260507033102 57 210 0.0 1.7 0.00 0.00 0.00 62 1017.8
20260507032600 57 201 1.7 1.7 0.00 0.00 0.00 62 1017.7
20260507032055 57 147 0.0 1.7 0.00 0.00 0.00 60 1017.5
20260507031552 58 179 0.0 1.7 0.00 0.00 0.00 60 1017.5
20260507031049 57 185 0.9 1.7 0.00 0.00 0.00 59 1017.5
20260507030545 58 345 0.0 0.9 0.00 0.00 0.00 59 1017.5
20260507030044 57 208 2.6 2.6 0.00 0.00 0.00 58 1017.5
20260507025540 57 184 1.7 2.6 0.00 0.00 0.00 62 1017.5
20260507025037 57 208 0.0 0.9 0.00 0.00 0.00 68 1017.6
20260507024536 57 168 0.0 1.7 0.00 0.00 0.00 69 1017.9
20260507024032 57 152 0.0 1.7 0.00 0.00 0.00 70 1017.9
20260507023528 56 188 0.9 1.7 0.00 0.00 0.00 71 1018.0
20260507023026 56 37 0.0 2.6 0.00 0.00 0.00 72 1018.1
20260507022522 56 173 0.9 1.7 0.00 0.00 0.00 71 1018.2
20260507022018 56 85 0.0 1.7 0.00 0.00 0.00 71 1018.1
20260507021514 56 181 0.9 1.7 0.00 0.00 0.00 69 1018.3
20260507021011 57 232 0.0 1.7 0.00 0.00 0.00 68 1017.9
20260507020508 57 220 0.0 1.7 0.00 0.00 0.00 67 1017.7
20260507020004 57 104 0.0 1.7 0.00 0.00 0.00 66 1017.6
20260507015503 57 161 0.0 1.7 0.00 0.00 0.00 66 1017.6
20260507015000 57 155 0.0 1.7 0.00 0.00 0.00 68 1017.7
20260507014456 57 191 0.0 1.7 0.00 0.00 0.00 68 1017.8
20260507013952 57 151 0.0 1.7 0.00 0.00 0.00 68 1017.8
20260507013449 57 168 0.0 1.7 0.00 0.00 0.00 67 1017.8
20260507012947 58 182 1.7 2.6 0.00 0.00 0.00 65 1017.8
20260507012443 58 178 0.9 1.7 0.00 0.00 0.00 66 1017.7
20260507011940 58 179 0.9 2.6 0.00 0.00 0.00 67 1017.7
20260507011437 58 176 0.0 0.9 0.00 0.00 0.00 69 1017.7
20260507010937 57 175 0.0 1.7 0.00 0.00 0.00 70 1017.6
20260507010433 57 162 0.0 1.7 0.00 0.00 0.00 71 1017.6
20260507005930 57 174 0.0 1.7 0.00 0.00 0.00 70 1017.6
20260507005427 57 193 0.0 1.7 0.00 0.00 0.00 70 1017.9
20260507004923 57 191 0.9 2.6 0.00 0.00 0.00 69 1018.0
20260507004420 58 136 0.0 1.7 0.00 0.00 0.00 68 1018.0